• Em Portugal
  • Lista de países
  • Para 7 dias
  • Temperatura da água
  • Mapas de satélite
  • Mapa do tempo
  • Widgets de tempo
  • user-avatar
    Iniciar Sessão

    Previsão horária em Telšiai

    Hoje, 17 Dezembro, Domingo

    Tempo Temperatura Precipitação Vento Pressão Humidade
    00:00 -1°C° 0 mm 2 m/s 741 mmHg 94%
    01:00 -1°C° 0 mm 2 m/s 742 mmHg 94%
    02:00 -1°C° 0 mm 2 m/s 742 mmHg 94%
    03:00 -2°C° 0 mm 2 m/s 743 mmHg 94%
    04:00 -2°C° 0 mm 2 m/s 743 mmHg 94%
    05:00 -2°C° 0 mm 2 m/s 743 mmHg 94%
    06:00 -2°C° 0 mm 2 m/s 744 mmHg 93%
    07:00 -2°C° 0 mm 2 m/s 744 mmHg 93%
    08:00 -2°C° 0 mm 2 m/s 745 mmHg 91%
    09:00 -1°C° 0 mm 2 m/s 746 mmHg 89%
    10:00 -1°C° 0 mm 2 m/s 746 mmHg 86%
    11:00 +1°C° 0 mm 2 m/s 747 mmHg 86%
    12:00 +1°C° 0 mm 2 m/s 747 mmHg 86%
    13:00 +1°C° 0 mm 2 m/s 748 mmHg 85%
    14:00 -1°C° 0 mm 2 m/s 748 mmHg 87%
    15:00 -1°C° 0 mm 2 m/s 748 mmHg 90%
    16:00 -2°C° 0 mm 2 m/s 749 mmHg 92%
    17:00 -2°C° 0 mm 2 m/s 749 mmHg 91%
    18:00 -2°C° 0 mm 2 m/s 750 mmHg 90%
    19:00 -2°C° 0 mm 2 m/s 750 mmHg 90%
    20:00 -2°C° 0 mm 2 m/s 751 mmHg 89%
    21:00 -2°C° 0 mm 2 m/s 751 mmHg 89%
    22:00 -2°C° 0 mm 2 m/s 752 mmHg 88%
    23:00 -2°C° 0 mm 2 m/s 752 mmHg 89%

    Amanhã, 18 Dezembro, Segunda-feira

    Tempo Temperatura Precipitação Vento Pressão Humidade
    00:00 -2°C° 0 mm 2 m/s 752 mmHg 89%
    01:00 -2°C° 0 mm 2 m/s 753 mmHg 89%
    02:00 -2°C° 0 mm 2 m/s 753 mmHg 90%
    03:00 -2°C° 0 mm 2 m/s 753 mmHg 91%
    04:00 -2°C° 0 mm 2 m/s 753 mmHg 91%
    05:00 -2°C° 0 mm 2 m/s 753 mmHg 91%
    06:00 0°C° 0 mm 1 m/s 753 mmHg 92%
    07:00 0°C° 0 mm 1 m/s 754 mmHg 92%
    08:00 0°C° 0 mm 1 m/s 754 mmHg 91%
    09:00 -2°C° 0 mm 2 m/s 754 mmHg 90%
    10:00 -1°C° 0 mm 2 m/s 755 mmHg 89%
    11:00 -1°C° 0 mm 2 m/s 755 mmHg 89%
    12:00 -1°C° 0 mm 2 m/s 755 mmHg 88%
    13:00 +1°C° 0 mm 1 m/s 755 mmHg 88%
    14:00 -2°C° 0 mm 2 m/s 755 mmHg 89%
    15:00 -2°C° 0 mm 2 m/s 755 mmHg 90%
    16:00 -3°C° 0 mm 2 m/s 755 mmHg 91%
    17:00 -3°C° 0 mm 2 m/s 756 mmHg 91%
    18:00 -3°C° 0 mm 2 m/s 756 mmHg 91%
    19:00 -3°C° 0 mm 2 m/s 756 mmHg 91%
    20:00 -3°C° 0 mm 2 m/s 756 mmHg 91%
    21:00 -3°C° 0 mm 2 m/s 756 mmHg 91%
    22:00 -3°C° 0 mm 2 m/s 756 mmHg 91%
    23:00 -3°C° 0 mm 2 m/s 756 mmHg 91%

    Depois de amanhã, 19 Dezembro, Terça-feira

    Tempo Temperatura Precipitação Vento Pressão Humidade
    00:00 -3°C° 0 mm 2 m/s 756 mmHg 91%
    01:00 -3°C° 0 mm 2 m/s 756 mmHg 91%
    02:00 -3°C° 0 mm 2 m/s 756 mmHg 92%
    03:00 -3°C° 0 mm 2 m/s 756 mmHg 92%
    04:00 -3°C° 0 mm 2 m/s 756 mmHg 92%
    05:00 -3°C° 0 mm 2 m/s 756 mmHg 92%
    06:00 -2°C° 0 mm 2 m/s 756 mmHg 92%
    07:00 -2°C° 0 mm 2 m/s 756 mmHg 92%
    08:00 -2°C° 0,1 mm 2 m/s 756 mmHg 92%
    09:00 -1°C° 0,1 mm 2 m/s 756 mmHg 91%
    10:00 -1°C° 0,1 mm 2 m/s 756 mmHg 91%
    11:00 +1°C° 0,2 mm 2 m/s 756 mmHg 92%
    12:00 +1°C° 0,2 mm 2 m/s 755 mmHg 94%
    13:00 +1°C° 0,2 mm 2 m/s 755 mmHg 95%
    14:00 +1°C° 0,2 mm 2 m/s 755 mmHg 96%
    15:00 +1°C° 0,2 mm 2 m/s 756 mmHg 96%
    16:00 +1°C° 0,2 mm 2 m/s 756 mmHg 97%
    17:00 -1°C° 0 mm 2 m/s 756 mmHg 97%
    18:00 +1°C° 0 mm 1 m/s 756 mmHg 97%
    19:00 +1°C° 0 mm 1 m/s 756 mmHg 97%
    20:00 +1°C° 0 mm 1 m/s 756 mmHg 97%
    21:00 0°C° 0 mm 1 m/s 756 mmHg 96%
    22:00 0°C° 0 mm 1 m/s 757 mmHg 96%
    23:00 0°C° 0 mm 1 m/s 757 mmHg 95%

    20 Dezembro, Quarta-feira

    Tempo Temperatura Precipitação Vento Pressão Humidade
    00:00 0°C° 0 mm 1 m/s 757 mmHg 95%
    01:00 0°C° 0 mm 1 m/s 757 mmHg 95%
    02:00 0°C° 0 mm 1 m/s 757 mmHg 94%
    03:00 0°C° 0 mm 1 m/s 757 mmHg 94%
    04:00 -1°C° 0 mm 0 m/s 758 mmHg 94%
    05:00 -1°C° 0 mm 1 m/s 758 mmHg 94%
    06:00 -1°C° 0 mm 1 m/s 758 mmHg 94%
    07:00 -1°C° 0 mm 1 m/s 758 mmHg 94%
    08:00 -1°C° 0 mm 1 m/s 758 mmHg 93%
    09:00 0°C° 0 mm 1 m/s 758 mmHg 93%
    10:00 0°C° 0 mm 1 m/s 759 mmHg 93%
    11:00 -2°C° 0 mm 2 m/s 758 mmHg 92%
    12:00 -2°C° 0 mm 2 m/s 758 mmHg 92%
    13:00 -1°C° 0 mm 2 m/s 758 mmHg 92%
    14:00 -2°C° 0 mm 2 m/s 758 mmHg 93%
    15:00 -2°C° 0 mm 2 m/s 757 mmHg 94%
    16:00 -2°C° 0 mm 2 m/s 757 mmHg 95%
    17:00 -2°C° 0 mm 3 m/s 757 mmHg 95%
    18:00 -2°C° 0 mm 3 m/s 757 mmHg 95%
    19:00 -2°C° 0 mm 3 m/s 756 mmHg 94%
    20:00 -3°C° 0,2 mm 4 m/s 756 mmHg 94%
    21:00 -3°C° 0,2 mm 4 m/s 755 mmHg 93%
    22:00 -4°C° 0,2 mm 5 m/s 755 mmHg 92%
    23:00 -4°C° 0,6 mm 5 m/s 754 mmHg 93%

    21 Dezembro, Quinta-feira

    Tempo Temperatura Precipitação Vento Pressão Humidade
    00:00 -4°C° 0,6 mm 5 m/s 753 mmHg 93%
    01:00 -4°C° 0,6 mm 5 m/s 753 mmHg 94%
    02:00 -4°C° 1,1 mm 5 m/s 752 mmHg 94%
    03:00 -4°C° 1,1 mm 5 m/s 751 mmHg 95%
    04:00 -2°C° 1,1 mm 5 m/s 750 mmHg 95%
    05:00 -2°C° 0,7 mm 5 m/s 750 mmHg 95%
    06:00 -2°C° 0,7 mm 5 m/s 749 mmHg 95%
    07:00 -2°C° 0,7 mm 4 m/s 749 mmHg 95%
    08:00 -2°C° 0,2 mm 4 m/s 748 mmHg 95%
    09:00 -1°C° 0,2 mm 3 m/s 748 mmHg 96%
    10:00 +1°C° 0,2 mm 2 m/s 748 mmHg 97%
    11:00 0°C° 0,1 mm 3 m/s 748 mmHg 97%
    12:00 0°C° 0,1 mm 3 m/s 748 mmHg 97%
    13:00 +1°C° 0,1 mm 3 m/s 748 mmHg 97%
    14:00 0°C° 0 mm 3 m/s 748 mmHg 96%
    15:00 0°C° 0 mm 3 m/s 748 mmHg 95%
    16:00 -1°C° 0 mm 3 m/s 748 mmHg 94%
    17:00 -1°C° 0 mm 3 m/s 749 mmHg 94%
    18:00 -2°C° 0 mm 2 m/s 749 mmHg 94%
    19:00 -2°C° 0 mm 2 m/s 749 mmHg 94%
    20:00 -2°C° 0 mm 2 m/s 749 mmHg 93%
    21:00 -2°C° 0 mm 2 m/s 748 mmHg 93%
    22:00 -2°C° 0 mm 2 m/s 748 mmHg 93%
    23:00 -2°C° 0 mm 2 m/s 748 mmHg 94%

    22 Dezembro, Sexta-feira

    Tempo Temperatura Precipitação Vento Pressão Humidade
    00:00 -1°C° 0 mm 2 m/s 747 mmHg 94%
    01:00 -1°C° 0 mm 3 m/s 747 mmHg 95%
    02:00 0°C° 0,1 mm 3 m/s 747 mmHg 96%
    03:00 0°C° 0,1 mm 3 m/s 746 mmHg 97%
    04:00 +1°C° 0,1 mm 2 m/s 746 mmHg 98%
    05:00 +1°C° 0,3 mm 2 m/s 745 mmHg 98%
    06:00 +1°C° 0,3 mm 2 m/s 745 mmHg 98%
    07:00 +1°C° 0,3 mm 2 m/s 745 mmHg 98%
    08:00 +1°C° 0,8 mm 2 m/s 745 mmHg 98%
    09:00 +1°C° 0,8 mm 2 m/s 745 mmHg 98%
    10:00 +1°C° 0,8 mm 2 m/s 745 mmHg 98%
    11:00 +1°C° 0,6 mm 2 m/s 745 mmHg 97%
    12:00 0°C° 0,6 mm 3 m/s 744 mmHg 96%
    13:00 0°C° 0,6 mm 3 m/s 744 mmHg 96%
    14:00 -1°C° 0,2 mm 3 m/s 745 mmHg 94%
    15:00 -1°C° 0,2 mm 3 m/s 745 mmHg 93%
    16:00 -1°C° 0,2 mm 3 m/s 745 mmHg 92%
    17:00 -1°C° 0 mm 3 m/s 745 mmHg 92%
    18:00 -2°C° 0 mm 3 m/s 746 mmHg 92%
    19:00 -2°C° 0 mm 2 m/s 746 mmHg 92%
    20:00 -2°C° 0 mm 2 m/s 745 mmHg 92%
    21:00 -2°C° 0 mm 2 m/s 745 mmHg 92%
    22:00 -3°C° 0 mm 2 m/s 745 mmHg 91%
    23:00 -3°C° 0 mm 2 m/s 745 mmHg 92%
    Mostrar mais